Location: ???????
(55.3754°N, 39.3545°E)
Time: 07:51:25
(UTC+00:00)

Cosmos 2237 Rocket - Pass Details

Date: 14 April 2026
Orbit: 833 x 850 km, 71.0° (Epoch: 14 May)

Event Time Altitude Azimuth Distance (km) Brightness Sun altitude
Rises 19:58:46 0° 237° (WSW) 3,402 5.2 -22.7°
Reaches altitude 10° 20:01:19 10° 243° (WSW) 2,472 4.6 -22.8°
Maximum altitude 20:06:45 45° 316° (NW) 1,150 3.3 -23.1°
Drops below altitude 10° 20:12:14 10° 29° (NNE) 2,489 5.2 -23.3°
Sets 20:14:49 0° 36° (NE) 3,428 5.9 -23.4°
